#timestamp,LO_Frequency,Hit,StdDev 
1682229615.7,286046995.8,N
1682229635.5,286046993.3,Y
1682229655.4,286046995.1,P
1682229675.2,286046995.8,N
1682229695.0,286046994.9,P
1682229695.9,286046994.9,Y
1682229715.8,286047000.3,P
1682229735.6,286047000.8,N
1682229755.5,286046999.2,N
1682229775.3,286046996.9,N
1682229795.1,286046997.0,N
1682229815.9,286046997.5,N
1682229835.7,286046997.9,N
1682229855.5,286046997.6,N
1682229875.4,286046997.8,N
1682229895.2,286046995.0,Y
1682229915.1,286046999.5,P
1682229916.0,286046999.5,N
1682229935.8,286046997.0,P
1682229955.6,286046997.9,N
1682229975.5,286046995.1,Y
1682229995.3,286046999.5,P
1682230015.2,286046996.6,P
1682230035.9,286046996.7,N
1682230055.7,286046999.6,N
1682230075.6,286046996.8,N
1682230095.4,286046996.7,N
1682230115.2,286046994.9,Y
1682230135.1,286046998.5,P
1682230136.0,286046998.5,P
1682230155.8,286046998.5,P
1682230175.7,286046999.2,N
1682230195.5,286046999.1,N
1682230215.3,286046999.1,N
1682230235.2,286046999.1,N
1682230255.0,286046996.6,Y
1682230255.9,286046996.6,P
1682230275.8,286046999.5,N
1682230295.6,286046999.1,N
1682230315.4,286046998.1,N
1682230335.3,286046998.2,N
1682230355.1,286047001.2,N
1682230375.8,286046998.2,N
1682230395.7,286046998.1,N
1682230415.5,286047000.8,N
1682230435.4,286046998.2,N
1682230455.2,286046998.8,N
1682230475.0,286046998.8,N
1682230475.9,286046998.8,N
1682230495.8,286046998.7,N
1682230515.6,286046999.3,N
1682230535.4,286046999.5,N
1682230555.3,286046996.5,Y
1682230575.1,286046998.9,P
1682230595.9,286047000.8,P
1682230615.7,286047000.7,N
1682230635.5,286046998.5,N
1682230655.4,286046998.2,N
1682230675.2,286046998.3,N
1682230695.0,286046999.4,N
1682230695.9,286046999.4,N
1682230715.8,286046998.4,N
1682230735.6,286047000.8,N
1682230755.5,286046998.3,N
1682230775.3,286047001.2,N
1682230795.1,286046999.5,N
1682230815.9,286046997.7,N
1682230835.7,286046997.3,N
1682230855.5,286046996.9,N
1682230875.4,286046997.3,N
1682230895.2,286046996.9,N
1682230915.1,286046996.7,N
1682230916.0,286046996.7,N
1682230935.8,286046997.2,N
1682230955.6,286046996.6,N
1682230975.5,286046996.5,N
1682230995.3,286046996.8,N
1682231015.1,286046997.5,N
1682231035.9,286046997.4,N
1682231055.7,286046996.6,N
1682231075.6,286046997.7,N
1682231095.4,286046999.6,N
1682231115.2,286046996.6,N
1682231135.1,286046997.2,N
1682231136.0,286046997.2,N
1682231155.8,286046995.4,Y
1682231175.7,286046999.3,P
1682231195.5,286046996.9,P
1682231215.3,286046999.1,N
1682231235.2,286046999.3,N
1682231255.0,286046999.4,N
1682231255.9,286046999.4,N
1682231275.7,286046998.7,N
1682231295.6,286046998.1,N
1682231315.4,286046998.6,N
1682231335.3,286046998.2,N
1682231355.1,286047000.0,N
1682231356.0,286047000.0,N
1682231375.8,286047000.9,N
1682231395.7,286047000.7,N
1682231415.5,286047000.3,N
1682231435.3,286047000.8,N
1682231455.2,286047000.7,N
1682231475.0,286047000.9,N
1682231475.9,286047000.9,N
1682231495.8,286047000.6,N
1682231515.6,286047001.0,N
1682231535.4,286046998.7,N
1682231555.3,286046998.8,N
1682231575.1,286046999.4,N
1682231595.9,286046999.1,N
1682231615.7,286046996.5,Y
1682231635.5,286046999.1,P
1682231655.4,286046998.6,P
1682231675.2,286046998.1,P
1682231695.0,286046998.9,N
1682231695.9,286046998.9,N
1682231715.8,286046999.5,N
1682231735.6,286046999.6,N
1682231755.5,286046996.6,Y
1682231775.3,286046998.8,P
1682231795.1,286046999.6,P
1682231815.9,286046998.5,P
1682231835.7,286047001.1,N
1682231855.6,286047000.8,N
1682231875.4,286047000.0,N
1682231895.3,286047000.2,N
1682231915.1,286047000.6,N
1682231916.0,286047000.6,N
1682231935.8,286047000.9,N
1682231955.7,286047000.5,N
1682231975.5,286047000.7,N
1682231995.4,286047000.9,N
1682232015.2,286047001.0,N
1682232035.0,286046998.2,N
1682232035.9,286046998.2,N
1682232055.8,286046998.8,N
1682232075.6,286046998.6,N
1682232095.4,286047001.1,N
1682232115.3,286046998.9,N
1682232135.1,286046998.8,N
1682232155.9,286046998.9,N
1682232175.7,286046998.9,N
1682232195.5,286046998.6,N
1682232215.4,286046996.8,Y
1682232235.2,286046996.5,P
1682232255.0,286046998.8,N
1682232255.9,286046998.8,N
1682232275.8,286046999.3,N
1682232295.6,286046998.8,N
1682232315.5,286046998.4,N
1682232335.3,286047001.0,N
1682232355.1,286047000.9,N
1682232375.9,286046999.1,N
1682232395.7,286046998.2,N
1682232415.6,286046998.8,N
1682232435.4,286046998.2,N
1682232455.2,286046998.6,N
1682232475.1,286046998.9,N
1682232476.0,286046998.9,N
1682232495.8,286046998.7,N
1682232515.6,286046998.6,N
1682232535.5,286046998.2,N
1682232555.3,286047000.6,N
1682232575.2,286047000.4,N
1682232595.0,286047001.0,N
1682232595.9,286047001.0,N
1682232615.7,286047000.8,N
1682232635.6,286047001.2,N
1682232655.4,286047000.7,N
1682232675.3,286047000.7,N
1682232695.1,286046998.2,N
1682232696.0,286046998.2,N
1682232715.8,286047000.2,N
1682232735.7,286047002.7,N
1682232755.5,286046999.8,N
1682232775.3,286047002.2,N
1682232795.2,286047002.6,N
1682232815.0,286047002.6,N
1682232815.9,286047002.6,N
1682232835.8,286047002.4,N
1682232855.6,286047002.6,N
1682232875.4,286047002.1,N
1682232895.3,286046999.7,N
1682232915.1,286047002.1,N
1682232935.9,286047000.1,N
1682232955.7,286047002.7,N
1682232975.5,286047001.5,N
1682232995.4,286047001.3,N
1682233015.2,286047004.4,N
1682233035.0,286047001.6,N
1682233035.9,286047001.6,N
1682233055.8,286047003.9,N
1682233075.6,286047004.2,N
1682233095.5,286047004.0,N
1682233115.3,286047004.4,N
1682233135.1,286047002.9,N
1682233155.9,286047003.0,N
1682233175.7,286047006.0,Y
1682233195.5,286047004.3,P
